(280579) = 2004 TY196 = 2006 BR94

Discovered at Kitt Peak on 2004-10-07 by Spacewatch.

Orbit

Orbit type: Main Belt

Note: WebGL enabled browser required.

epoch2023-02-25.0
epoch JD2460000.5
perihelion date2021-12-18.59903
perihelion JD2459567.09903
argument of perihelion (°)155.23172
ascending node (°)250.43539
inclination (°)1.03042
eccentricity0.0775629
perihelion distance (AU)2.4211333
Tisserand w.r.t. Jupiter3.4
ΔV w.r.t. Earth (km/sec)9.7
semimajor axis (AU)2.6247137
mean anomaly (°)100.45483
mean daily motion (°/day)0.23178270
aphelion distance (AU)2.828
period (years)4.25
P-vector [x]0.69876216
P-vector [y]0.65329125
P-vector [z]0.29144807
Q-vector [x]-0.71515334
Q-vector [y]0.64761047
Q-vector [z]0.26297599
absolute magnitude17.39
phase slope0.15
uncertainty0
referenceMPEC 2023-F215
observations used217
oppositions12
arc length (days)6746
first opposition used2004
last opposition used2023
residual rms (arc-secs)0.83
perturbers coarse indicatorM-v
perturbers precise indicator003Ek
first observation date used2004-10-07.0
last observation date used2023-03-28.0
computer nameMPCLINUX
Minimum Orbit Intersection Distances (in AU)
for orbit epoch: 2460000.5, reference: E2023-FA2
Mercury2.09994
Venus1.69893
Earth1.42877
Mars0.90143
Jupiter2.45129
Saturn6.56455
Uranus15.7026
Neptune27.4126

Observations

223 total observations over interval: 2004 10 07.35677 – 2023 03 28.216503
These data are available for download (format description).

Date (UT) J2000 RA J2000 Dec Magn Location Ref
2004 10 07.35677 02 13 20.02 +14 38 40.2 20.7 V 691 – Steward Observatory, Kitt Peak-Spacewatch MPS 117901
2004 10 07.38427 02 13 18.79 +14 38 33.7 20.5 V 691 – Steward Observatory, Kitt Peak-Spacewatch MPS 117901
2004 10 07.41076 02 13 17.59 +14 38 27.6 20.8 V 691 – Steward Observatory, Kitt Peak-Spacewatch MPS 117901
2004 10 11.36401 02 10 18.56 +14 22 25.2 20.5 V 691 – Steward Observatory, Kitt Peak-Spacewatch MPS 117901
2004 10 11.39537 02 10 17.02 +14 22 17.4 20.7 V 691 – Steward Observatory, Kitt Peak-Spacewatch MPS 117901
2004 10 11.42316 02 10 15.65 +14 22 10.0 20.6 V 691 – Steward Observatory, Kitt Peak-Spacewatch MPS 117901
2004 10 15.32582 02 07 04.46 +14 04 38.9 20.4 V 691 – Steward Observatory, Kitt Peak-Spacewatch MPS 118603
2004 10 15.35283 02 07 03.04 +14 04 31.4 20.3 V 691 – Steward Observatory, Kitt Peak-Spacewatch MPS 118603
2004 10 15.38033 02 07 01.59 +14 04 23.6 20.3 V 691 – Steward Observatory, Kitt Peak-Spacewatch MPS 118603
2006 01 26.38572 10 49 07.20 +05 54 01.7 21.5 V 691 – Steward Observatory, Kitt Peak-Spacewatch MPS 161992
2006 01 26.40307 10 49 06.64 +05 54 04.5 21.7 V 691 – Steward Observatory, Kitt Peak-Spacewatch MPS 161992
2006 01 26.42043 10 49 06.09 +05 54 07.8 21.3 V 691 – Steward Observatory, Kitt Peak-Spacewatch MPS 161992
2006 01 28.34488 10 48 04.75 +05 59 25.6 21.0 V G96 – Mt. Lemmon Survey MPS 161992
2006 01 28.35091 10 48 04.57 +05 59 27.1 21.1 V G96 – Mt. Lemmon Survey MPS 161992
2006 01 28.35694 10 48 04.35 +05 59 27.6 21.4 V G96 – Mt. Lemmon Survey MPS 161992
2006 01 28.36297 10 48 04.14 +05 59 29.4 22.4 V G96 – Mt. Lemmon Survey MPS 161992
2006 01 30.41087 10 46 53.05 +06 05 45.4 21.5 V 691 – Steward Observatory, Kitt Peak-Spacewatch MPS 161811
2006 01 30.42813 10 46 52.38 +06 05 48.7 21.5 V 691 – Steward Observatory, Kitt Peak-Spacewatch MPS 161811
2006 01 30.44540 10 46 51.72 +06 05 51.8 21.0 V 691 – Steward Observatory, Kitt Peak-Spacewatch MPS 161811
2006 02 20.34162 10 30 39.31 +07 36 43.3 21.3 V G96 – Mt. Lemmon Survey MPS 163834
2006 02 20.35895 10 30 38.34 +07 36 49.6 20.9 V G96 – Mt. Lemmon Survey MPS 163834
2006 02 20.36581 10 30 37.94 +07 36 51.8 21.1 V G96 – Mt. Lemmon Survey MPS 163834
2006 02 20.38705 10 30 36.79 +07 36 58.1 20.9 V G96 – Mt. Lemmon Survey MPS 163834
2006 02 24.29931 10 27 07.41 +07 57 09.1 21.3 V G96 – Mt. Lemmon Survey MPS 163834
2006 02 24.30735 10 27 06.94 +07 57 11.5 20.6 V G96 – Mt. Lemmon Survey MPS 163834
2006 02 24.31543 10 27 06.48 +07 57 13.8 20.4 V G96 – Mt. Lemmon Survey MPS 163834
2006 02 24.32357 10 27 05.97 +07 57 16.4 19.9 V G96 – Mt. Lemmon Survey MPS 163834
2006 03 03.24589 10 20 58.66 +08 32 58.3 20.5 V G96 – Mt. Lemmon Survey MPS 166095
2006 03 03.25209 10 20 58.38 +08 33 01.1 21.2 V G96 – Mt. Lemmon Survey MPS 166095
2006 03 03.25826 10 20 58.02 +08 33 02.7 20.9 V G96 – Mt. Lemmon Survey MPS 166095
2006 03 03.26439 10 20 57.80 +08 33 05.0 20.6 V G96 – Mt. Lemmon Survey MPS 166095
2008 09 02.22046 00 05 19.87 +02 22 03.9 21.2 V 691 – Steward Observatory, Kitt Peak-Spacewatch MPS 255852
2008 09 02.23819 00 05 19.13 +02 21 59.8 20.5 V 691 – Steward Observatory, Kitt Peak-Spacewatch MPS 255852
2008 09 02.25341 00 05 18.50 +02 21 55.9 20.8 V 691 – Steward Observatory, Kitt Peak-Spacewatch MPS 255852
2008 09 06.23684 00 02 32.18 +02 04 40.1   691 – Steward Observatory, Kitt Peak-Spacewatch MPS 255852
2008 09 06.25459 00 02 31.37 +02 04 35.2   691 – Steward Observatory, Kitt Peak-Spacewatch MPS 255852
2008 09 06.27234 00 02 30.54 +02 04 30.1   691 – Steward Observatory, Kitt Peak-Spacewatch MPS 255852
2008 09 25.30010 23 47 05.42 +00 23 26.8 20.4 V G96 – Mt. Lemmon Survey MPS 256684
2008 09 25.30064 23 47 05.42 +00 23 26.5 20.4 V G96 – Mt. Lemmon Survey MPS 256684
2008 09 25.30918 23 47 04.95 +00 23 23.3 20.2 V G96 – Mt. Lemmon Survey MPS 256684
2008 09 25.30972 23 47 04.95 +00 23 23.4 20.6 V G96 – Mt. Lemmon Survey MPS 256684
2008 09 25.31844 23 47 04.34 +00 23 20.5 19.3 V G96 – Mt. Lemmon Survey MPS 256684
2008 09 25.31897 23 47 04.34 +00 23 20.7 19.4 V G96 – Mt. Lemmon Survey MPS 256684
2008 09 25.32751 23 47 03.98 +00 23 17.2 20.6 V G96 – Mt. Lemmon Survey MPS 256684
2008 10 02.34716 23 41 25.58 -00 15 34.5 20.5 V G96 – Mt. Lemmon Survey MPS 257921
2008 10 02.35557 23 41 25.15 -00 15 37.0 20.7 V G96 – Mt. Lemmon Survey MPS 257921
2008 10 02.36397 23 41 24.75 -00 15 39.8 20.4 V G96 – Mt. Lemmon Survey MPS 257921
2008 10 02.37238 23 41 24.36 -00 15 42.6 20.7 V G96 – Mt. Lemmon Survey MPS 257921
2008 11 24.11899 23 32 11.36 -01 49 04.9 21.3 V G96 – Mt. Lemmon Survey MPS 266436
2008 11 24.12457 23 32 11.50 -01 49 03.6 21.6 V G96 – Mt. Lemmon Survey MPS 266436
2008 11 24.13017 23 32 11.65 -01 49 03.1 21.8 V G96 – Mt. Lemmon Survey MPS 266436
2008 11 24.13576 23 32 11.83 -01 49 02.4 22.4 V G96 – Mt. Lemmon Survey MPS 266436
2010 02 18.19514 08 21 02.37 +18 02 22.3 21.1 V G96 – Mt. Lemmon Survey MPS 313144
2010 02 18.20118 08 21 02.08 +18 02 23.3 20.9 V G96 – Mt. Lemmon Survey MPS 313144
2010 02 18.20477 08 21 01.94 +18 02 24.0 20.8 V G96 – Mt. Lemmon Survey MPS 313144
2010 02 18.20837 08 21 01.72 +18 02 24.5 20.9 V G96 – Mt. Lemmon Survey MPS 313144
2010 02 18.21201 08 21 01.62 +18 02 25.0 20.8 V G96 – Mt. Lemmon Survey MPS 313144
2011 05 22.21174 14 43 17.47 -16 25 32.1 21.7 V G96 – Mt. Lemmon Survey MPS 383296
2011 05 22.21910 14 43 17.11 -16 25 30.2 20.8 V G96 – Mt. Lemmon Survey MPS 383296
2011 05 22.22659 14 43 16.71 -16 25 28.1 21.2 V G96 – Mt. Lemmon Survey MPS 383296
2011 05 22.23409 14 43 16.35 -16 25 26.9 21.7 V G96 – Mt. Lemmon Survey MPS 383296
2011 05 23.26306 14 42 27.50 -16 21 18.9 20.7 V G96 – Mt. Lemmon Survey MPS 383296
2011 05 23.27098 14 42 27.14 -16 21 18.0 20.9 V G96 – Mt. Lemmon Survey MPS 383296
2011 05 23.27906 14 42 26.67 -16 21 16.0 20.6 V G96 – Mt. Lemmon Survey MPS 383296
2011 05 23.28714 14 42 26.31 -16 21 14.5 21.3 V G96 – Mt. Lemmon Survey MPS 383296
2012 08 13.41355 21 59 42.163 -10 30 58.66 20.7 w F51 – Pan-STARRS 1, Haleakala MPS 429983
2012 08 13.42803 21 59 41.390 -10 31 02.42 20.5 w F51 – Pan-STARRS 1, Haleakala MPS 429983
2012 08 13.44257 21 59 40.616 -10 31 06.18 20.7 w F51 – Pan-STARRS 1, Haleakala MPS 429983
2012 08 13.45733 21 59 39.834 -10 31 10.05 20.7 w F51 – Pan-STARRS 1, Haleakala MPS 429983
2012 09 15.21172 21 34 02.71 -12 46 14.3 21.0 V G96 – Mt. Lemmon Survey MPS 433231
2012 09 15.21693 21 34 02.46 -12 46 16.9 21.8 V G96 – Mt. Lemmon Survey MPS 433231
2012 09 15.22213 21 34 02.28 -12 46 18.5 21.6 V G96 – Mt. Lemmon Survey MPS 433231
2012 09 15.22737 21 34 02.10 -12 46 19.2 21.4 V G96 – Mt. Lemmon Survey MPS 433231
2015 04 11.32817 13 27 47.92 -10 28 46.5 20.9 V G96 – Mt. Lemmon Survey MPS 600401
2015 04 11.33252 13 27 47.68 -10 28 45.5 20.8 V G96 – Mt. Lemmon Survey MPS 600401
2015 04 11.33686 13 27 47.47 -10 28 43.9 21.0 V G96 – Mt. Lemmon Survey MPS 600401
2015 04 11.34121 13 27 47.23 -10 28 42.9 21.0 V G96 – Mt. Lemmon Survey MPS 600401
2015 04 21.21843 13 19 19.57 -09 35 58.1 21.3 V W84 – Cerro Tololo-DECam MPS 789283
2015 04 21.22164 13 19 19.40 -09 35 57.1   W84 – Cerro Tololo-DECam MPS 789283
2015 04 21.22490 13 19 19.22 -09 35 56.1   W84 – Cerro Tololo-DECam MPS 789283
2015 04 21.22813 13 19 19.06 -09 35 55.0   W84 – Cerro Tololo-DECam MPS 789283
2015 04 21.23139 13 19 18.89 -09 35 54.0   W84 – Cerro Tololo-DECam MPS 789283
2015 04 22.21724 13 18 29.81 -09 30 40.7 21.3 V W84 – Cerro Tololo-DECam MPS 789283
2015 04 22.22050 13 18 29.64 -09 30 39.8   W84 – Cerro Tololo-DECam MPS 789283
2015 04 22.22375 13 18 29.48 -09 30 38.7   W84 – Cerro Tololo-DECam MPS 789283
2015 04 22.22696 13 18 29.31 -09 30 37.6   W84 – Cerro Tololo-DECam MPS 789283
2015 04 22.23021 13 18 29.14 -09 30 36.6   W84 – Cerro Tololo-DECam MPS 789283
2016 07 04.37368 20 16 43.61 -18 34 10.4 21.5 V 691 – Steward Observatory, Kitt Peak-Spacewatch MPS 719122
2016 07 04.39225 20 16 42.67 -18 34 12.7 21.2 V 691 – Steward Observatory, Kitt Peak-Spacewatch MPS 719122
2016 07 04.41082 20 16 41.79 -18 34 15.1 20.8 V 691 – Steward Observatory, Kitt Peak-Spacewatch MPS 719122
2016 07 10.31275 20 11 49.64 -18 47 15.2 21.6 V G96 – Mt. Lemmon Survey MPS 721045
2016 07 10.31909 20 11 49.31 -18 47 16.2 20.8 V G96 – Mt. Lemmon Survey MPS 721045
2016 07 10.32535 20 11 48.98 -18 47 16.5 21.0 V G96 – Mt. Lemmon Survey MPS 721045
2016 07 10.36110 20 11 47.03 -18 47 22.2 20.9 V 691 – Steward Observatory, Kitt Peak-Spacewatch MPS 721045
